This demonstration page uses our WeatherBlox Daily Observations layout. Learn more.

Left ArrowRight Arrow

Hourly Observations for June 11, 2019

Temp ( °F °C ) Dew Point ( °F °C ) Humidity (%) Winds ( mph kmh ) Pressure ( in mb ) Visibility ( mi km ) Precip ( " mm )
12:56 am 00:56 Mostly Clear 66 19 45 7 46 46 SE 3 6 30.12 1020 10 16 0.00 0.00
1:56 am 01:56 Mostly Clear 64 18 45 7 49 49 S 3 6 30.12 1020 10 16 0.00 0.00
2:56 am 02:56 Mostly Clear 66 19 41 5 40 40 S 3 6 30.12 1020 10 16 0.00 0.00
3:56 am 03:56 Partly Cloudy 64 18 41 5 43 43 NW 5 7 30.14 1021 10 16 0.00 0.00
4:56 am 04:56 Partly Cloudy 64 18 43 6 46 46 Calm 30.13 1020 10 16 0.00 0.00
5:56 am 05:56 Partly Cloudy 64 18 46 8 52 52 SSE 5 7 29.88 1012 10 16 0.00 0.00
6:56 am 06:56 Mostly Cloudy 64 18 45 7 49 49 S 3 6 30.12 1020 10 16 0.00 0.00
7:56 am 07:56 undefined N/A N/A N/A S 6 9 N/A N/A 0.00 0.00
8:56 am 08:56 Mostly Sunny 66 19 45 7 46 46 S 8 13 30.10 1019 10 16 0.00 0.00
9:56 am 09:56 Mostly Sunny 70 21 45 7 40 40 SSE 14 22 30.10 1019 10 16 0.00 0.00
10:56 am 10:56 Mostly Sunny 77 25 43 6 30 30 SSW 20 31 30.06 1018 10 16 0.00 0.00
11:56 am 11:56 Mostly Sunny 79 26 41 5 26 26 SW 17 28 30.04 1017 10 16 0.00 0.00
12:56 pm 12:56 Mostly Cloudy 79 26 43 6 28 28 SSW 16 26 30.00 1016 10 16 0.00 0.00
1:22 pm 13:22 Mostly Cloudy 77 25 41 5 28 28 S 13 20 30.00 1016 10 16 0.00 0.00
1:56 pm 13:56 Mostly Cloudy 79 26 41 5 26 26 SSW 14 22 29.99 1016 10 16 0.00 0.00
2:56 pm 14:56 Mostly Cloudy 77 25 43 6 30 30 S 6 9 29.98 1015 10 16 0.00 0.00
3:56 pm 15:56 Mostly Cloudy with Light Showers 77 25 45 7 32 32 SW 7 11 29.96 1015 5 8 0.00 0.00
4:56 pm 16:56 Mostly Cloudy 72 22 50 10 47 47 SW 10 17 29.95 1014 7 11 0.00 0.00
5:56 pm 17:56 undefined N/A N/A N/A WSW 8 13 N/A N/A 0.00 0.00
6:56 pm 18:56 Mostly Cloudy 72 22 50 10 47 47 SW 14 22 29.93 1014 7 11 0.00 0.00
7:56 pm 19:56 Mostly Cloudy with Light Showers 68 20 55 13 64 64 NNW 8 13 29.97 1015 6 10 0.00 0.00
8:56 pm 20:56 Mostly Cloudy with Showers 61 16 57 14 88 88 N 6 9 29.99 1016 5 8 0.00 0.00
9:56 pm 21:56 Mostly Cloudy with Nearby Thunderstorms 63 17 55 13 77 77 S 9 15 29.96 1014 6 10 0.00 0.00

Powered by AerisWeather